Location: ActonStarParty
(42.4766°N, 71.4538°W)
Time: 12:54:05
(UTC-04:00)

ATLAS 5 CENTAUR R/B - Visible Passes

Search period start: 24 October 2014 00:00
Search period end: 02 November 2014 23:00
Orbit: 360 x 14915 km, 61.0° (Epoch: 18 October)

Date Brightness Start Highest point End Pass type
(mag) Time Alt. Az. Time Alt. Az. Time Alt. Az.
24 Oct 7.4 01:50:19 10° SW 04:02:32 58° NNW 04:27:48 10° ENE visible
24 Oct 8.1 20:03:05 10° SE 21:40:50 43° E 22:29:55 10° NE visible
25 Oct 7.7 00:32:01 10° SW 02:46:43 68° NW 03:20:43 10° NE visible
25 Oct 8.2 19:18:57 10° ESE 20:36:56 30° E 21:20:11 10° NE visible
25 Oct 7.9 23:20:18 10° SSW 01:31:14 81° NW 02:13:36 10° NE visible
26 Oct 6.1 05:48:28 10° WNW 06:51:57 55° NNE 07:02:14 10° E visible
26 Oct 8.3 18:47:29 10° E 19:35:05 18° ENE 20:06:33 10° NE visible
26 Oct 7.9 22:13:09 10° S 00:17:59 85° ESE 01:06:23 10° NE visible
27 Oct 6.7 04:25:51 16° W 05:41:13 51° N 05:55:23 10° ENE visible
27 Oct 8.0 21:10:06 10° SSE 23:07:29 69° ESE 23:58:56 10° NE visible
28 Oct 7.1 02:24:55 10° WSW 04:28:18 54° NNW 04:48:14 10° ENE visible
28 Oct 8.0 20:11:58 10° SSE 21:59:35 54° E 22:51:02 10° NE visible
29 Oct 7.5 00:59:00 10° SW 03:13:08 61° NNW 03:40:58 10° NE visible
29 Oct 8.1 19:20:44 10° SE 20:54:00 40° E 21:42:16 10° NE visible
29 Oct 7.8 23:42:41 10° SSW 01:56:47 71° NW 02:33:39 10° NE visible
30 Oct 5.6 06:24:49 10° NW 07:13:21 64° NNE 07:21:47 10° ESE visible
30 Oct 8.2 18:39:26 10° ESE 19:50:32 27° ENE 20:31:39 10° NE visible
30 Oct 7.8 22:32:12 10° SSW 00:41:26 85° WNW 01:26:18 10° NE visible
31 Oct 6.3 04:51:24 10° WNW 06:03:49 54° NNE 06:15:06 10° E visible
31 Oct 8.3 18:12:40 10° E 18:49:07 15° ENE 19:15:15 10° NE visible
31 Oct 7.9 21:25:59 10° S 23:28:42 80° ESE 00:18:48 10° NE visible
01 Nov 6.8 03:06:08 10° W 04:52:15 52° N 05:07:57 10° ENE visible
01 Nov 7.9 20:24:00 10° SSE 22:18:47 65° E 23:11:02 10° NE visible
02 Nov 7.2 01:29:52 10° WSW 02:38:21 55° NNW 03:00:33 10° ENE visible
02 Nov 8.0 18:27:20 10° SE 20:11:25 50° E 21:02:44 10° NE visible
